Weather in Velyka Kamyshuvakha

Ukraine / Kharkiv Region     49°06′09″N   36°59′59″E
temp.,
°C
wind,
m/s
gust,
m/s
humid.,
%
clouds,
%
prec.,
mm/h
press.,
hPa
HPBL,
m
15 may, sat
sat1500:00+15sw33750 0.0 101139
03:00+13wsw357863 0.0 101272
06:00+13sw3577100 0.0 1012101
09:00+19wsw345818 0.0 1013501
12:00+23sw46465 0.0 10131522
15:00+24sw56435 0.0 10132138
18:00+23sw35515 0.0 1013441
21:00+17w33635 0.0 101318
16 may, sun
sun1600:00+15e00661 0.0 101411
03:00+15ene116768 0.0 101411
06:00+15nne22736 0.0 101423
09:00+21ne345790 0.0 1013407
12:00+25ne55495 0.0 10121332
15:00+26ene564829 0.0 10101854
18:00+23ene597295 0.7 1009261
21:00+18ene497088 0.7 1008127
17 may, mon
mon1700:00+17ene41276100 0.0 1007202
03:00+16e514746 0.0 1006248
06:00+15e41076100 0.0 1006201
09:00+20ese7105748 0.0 1005501
12:00+25se7949100 0.0 10051009
15:00+27sse81052100 0.0 10041503
18:00+22s61066100 0.0 1005622
21:00+20s81375100 0.0 1007593
18 may, tue
tue1800:00+16ssw61187100 0.0 1007415
03:00+14ssw499867 0.0 1008283
06:00+14s4793100 0.0 1009275
09:00+18ssw6871100 0.0 1009808
12:00+22ssw675699 0.0 10091528
15:00+23s5752100 0.9 10081689
18:00+19ssw476997 0.1 1008220
21:00+16s6148549 1.4 1009438
19 may, wed
wed1900:00+15ssw51094100 0.9 1009331
03:00+14sw379653 0.9 1010209
06:00+13wsw269155 1.1 1010261
09:00+17wsw4571100 1.1 1011879
12:00+20wsw4556100 0.0 10111467
15:00+20wsw1251100 0.0 10101510
18:00+15ssw3592100 1.8 1011233
21:00+14ssw2395100 4.4 1011134